This demonstration page uses our WeatherBlox Daily Observations layout. Learn more.

Left ArrowRight Arrow

39.51506, -84.39828

Hourly Observations for May 26, 2022

Temp ( °F °C ) Dew Point ( °F °C ) Humidity (%) Winds ( mph kmh ) Pressure ( in mb ) Visibility ( mi km ) Precip ( " mm )
12:15 am 00:15 Mostly Cloudy 71 21.9 69 20.5 92 92 SSE 7 11 29.94 1014 10 16 0.00 0.00
12:35 am 00:35 Mostly Cloudy 72 22.4 67 19.4 83 83 S 9 15 29.94 1014 10 16 0.00 0.00
12:55 am 00:55 Cloudy 73 23 65 18.1 74 74 S 12 19 29.94 1014 10 16 0.00 0.00
1:15 am 01:15 Mostly Cloudy 74 23.1 64 17.5 71 71 S 10 17 29.95 1014 10 16 0.00 0.00
1:35 am 01:35 Partly Cloudy 74 23.2 63 17.2 69 69 SSE 10 17 29.95 1014 10 16 0.00 0.00
1:55 am 01:55 Clear 73 22.9 63 17.1 70 70 S 10 17 29.95 1014 10 16 0.00 0.00
2:15 am 02:15 Clear 74 23.2 62 16.7 67 67 S 12 19 29.95 1014 10 16 0.00 0.00
2:35 am 02:35 Partly Cloudy 73 22.9 62 16.9 69 69 S 14 22 29.95 1014 10 16 0.00 0.00
2:55 am 02:55 Mostly Cloudy 73 22.8 63 17.1 70 70 S 9 15 29.96 1014 10 16 0.00 0.00
3:15 am 03:15 Cloudy 73 22.5 63 17.1 72 72 S 9 15 29.95 1014 10 16 0.00 0.00
3:35 am 03:35 Mostly Cloudy 73 22.5 63 17.2 72 72 S 8 13 29.94 1014 10 16 0.00 0.00
3:55 am 03:55 Cloudy 72 22.3 63 17.4 74 74 SSE 7 11 29.94 1014 10 16 0.00 0.00
4:15 am 04:15 Cloudy 73 22.5 63 17.1 72 72 S 9 15 29.94 1014 10 16 0.00 0.00
4:35 am 04:35 Cloudy 72 22.4 63 17.1 72 72 S 10 17 29.94 1014 10 16 0.00 0.00
4:55 am 04:55 Cloudy 72 22.4 63 17.3 73 73 S 9 15 29.94 1014 10 16 0.00 0.00
5:15 am 05:15 Cloudy 73 22.6 63 17.4 73 73 S 12 19 29.94 1014 10 16 0.00 0.00
5:35 am 05:35 Cloudy 72 22.3 64 17.5 74 74 S 12 19 29.94 1014 10 16 0.00 0.00
5:55 am 05:55 Cloudy 72 22.2 64 17.7 76 76 S 12 19 29.94 1014 10 16 0.00 0.00
6:15 am 06:15 Cloudy 72 22.2 64 17.7 76 76 S 12 19 29.95 1014 10 16 0.00 0.00
6:35 am 06:35 Cloudy 72 22 64 17.7 77 77 S 10 17 29.95 1014 10 16 0.00 0.00
6:55 am 06:55 Cloudy 71 21.7 64 17.9 79 79 SSE 7 11 29.95 1014 7 11 0.00 0.00
7:15 am 07:15 Cloudy 71 21.6 65 18.2 81 81 SSE 12 19 29.95 1014 10 16 0.00 0.00
7:35 am 07:35 Cloudy 70 21.3 65 18.5 84 84 S 12 19 29.96 1015 10 16 0.00 0.00
7:55 am 07:55 Cloudy 71 21.4 65 18.5 84 84 SE 12 19 29.95 1014 10 16 0.00 0.00
8:15 am 08:15 Cloudy with Light Rain 69 20.6 66 19.1 91 91 SSE 13 20 29.96 1015 7 11 0.00 0.00
8:35 am 08:35 Cloudy 69 20.4 67 19.4 94 94 SSE 12 19 29.96 1015 10 16 0.00 0.00
8:55 am 08:55 Cloudy 69 20.4 67 19.2 93 93 SSE 13 20 29.95 1014 10 16 0.00 0.00
9:15 am 09:15 Cloudy with Light Rain 69 20.5 67 19.4 93 93 SSE 9 15 29.95 1014 10 16 0.00 0.00
9:35 am 09:35 Cloudy with Light Rain 69 20.3 67 19.6 96 96 SSE 9 15 29.96 1015 10 16 0.00 0.00
9:55 am 09:55 Cloudy 69 20.3 67 19.5 95 95 SSE 10 17 29.95 1014 10 16 0.00 0.00
10:15 am 10:15 Cloudy with Rain 68 19.9 67 19.6 98 98 SSE 9 15 29.95 1014 5 8 0.01 0.25
10:35 am 10:35 Cloudy with Light Rain 68 20 68 20 100 100 SSE 6 9 29.95 1014 7 11 0.02 0.51
10:55 am 10:55 Cloudy with Light Rain 68 19.9 68 19.8 99 99 SSE 12 19 29.95 1014 10 16 0.03 0.76
11:15 am 11:15 Cloudy 68 20 67 19.5 97 97 SSE 15 24 29.94 1014 10 16 0.00 0.00
11:35 am 11:35 Cloudy 69 20.5 67 19.7 95 95 SSE 9 15 29.93 1014 10 16 0.00 0.00
11:55 am 11:55 Cloudy 70 21 67 19.6 92 92 S 12 19 29.93 1014 10 16 0.00 0.00
12:15 pm 12:15 Cloudy 71 21.5 67 19.4 88 88 S 13 20 29.92 1013 10 16 0.00 0.00
12:35 pm 12:35 Cloudy 71 21.8 67 19.4 86 86 S 14 22 29.92 1013 10 16 0.00 0.00
12:55 pm 12:55 Cloudy 71 21.9 67 19.5 86 86 SSE 13 20 29.91 1013 10 16 0.00 0.00
1:15 pm 13:15 Mostly Cloudy 74 23.3 68 19.9 81 81 S 13 20 29.89 1012 10 16 0.00 0.00
1:35 pm 13:35 Mostly Cloudy 74 23.3 66 18.9 76 76 S 15 24 29.88 1012 10 16 0.00 0.00
1:55 pm 13:55 Cloudy 74 23.3 66 19.1 77 77 S 12 19 29.88 1012 10 16 0.00 0.00
2:15 pm 14:15 Cloudy with Light Rain 73 22.5 66 19 81 81 SE 8 13 29.86 1011 7 11 0.00 0.00
2:35 pm 14:35 Cloudy with Heavy Rain 69 20.6 69 20.3 98 98 SSW 17 28 29.86 1011 2 3 0.04 1.02
2:55 pm 14:55 Cloudy with Light Rain 69 20.7 67 19.5 93 93 SSW 18 30 29.88 1012 10 16 0.10 2.54
3:15 pm 15:15 Cloudy with Light Rain 68 20.1 67 19.5 96 96 S 9 15 29.88 1012 10 16 0.05 1.27
3:35 pm 15:35 Cloudy with Light Rain 66 19 66 19 100 100 NW 10 17 29.90 1012 10 16 0.09 2.29
3:55 pm 15:55 Cloudy with Light Rain 64 18 64 18 100 100 NNW 7 11 29.90 1013 10 16 0.13 3.30
4:15 pm 16:15 Cloudy 66 19 N/A N/A NNE 5 7 29.89 1012 10 16 0.03 0.76
4:35 pm 16:35 Cloudy 66 18.8 66 18.7 99 99 N 5 7 29.88 1012 10 16 0.05 1.27
4:55 pm 16:55 Cloudy 66 19 66 18.7 98 98 NE 7 11 29.88 1012 10 16 0.06 1.52
5:15 pm 17:15 Cloudy 66 18.9 65 18.6 98 98 NE 8 13 29.87 1011 10 16 0.01 0.25
5:35 pm 17:35 Cloudy 66 18.8 65 18.4 98 98 NE 5 7 29.88 1012 10 16 0.02 0.51
5:55 pm 17:55 Cloudy 65 18.6 65 18.1 97 97 NNE 8 13 29.87 1011 10 16 0.02 0.51
6:15 pm 18:15 Cloudy with Light Rain 64 18 64 18 100 100 ENE 6 9 29.86 1011 7 11 0.00 0.00
6:35 pm 18:35 Cloudy with Rain 64 18 N/A N/A ENE 3 6 29.86 1011 7 11 0.01 0.25
6:55 pm 18:55 Cloudy with Light Rain 64 18 N/A N/A ENE 6 9 29.83 1010 10 16 0.01 0.25
7:15 pm 19:15 Cloudy with Light Rain 64 18 N/A N/A ENE 10 17 29.81 1009 7 11 0.01 0.25
7:35 pm 19:35 Cloudy 66 19 N/A N/A E 3 6 29.83 1010 10 16 0.02 0.51
7:55 pm 19:55 Cloudy 66 19 N/A N/A Calm 29.83 1010 10 16 0.02 0.51
8:15 pm 20:15 Cloudy 66 19 N/A N/A E 6 9 29.81 1009 10 16 0.01 0.25
8:35 pm 20:35 Cloudy with Drizzle 66 19 N/A N/A ESE 7 11 29.81 1009 10 16 0.01 0.25
8:55 pm 20:55 Mostly Cloudy 66 19 N/A N/A SE 7 11 29.82 1010 10 16 0.02 0.51
9:15 pm 21:15 Mostly Cloudy with Light Rain 66 19 N/A N/A SE 10 17 29.81 1009 10 16 0.00 0.00
9:35 pm 21:35 Partly Cloudy 66 19.1 66 18.9 99 99 SE 9 15 29.82 1010 10 16 0.00 0.00
9:55 pm 21:55 Partly Cloudy 67 19.2 64 17.9 92 92 SE 9 15 29.82 1010 10 16 0.00 0.00
10:15 pm 22:15 Mostly Cloudy 66 19.1 65 18.2 95 95 SE 7 11 29.83 1010 10 16 0.00 0.00
10:35 pm 22:35 Cloudy 66 19 65 18.1 95 95 SE 10 17 29.82 1010 10 16 0.00 0.00
10:55 pm 22:55 Cloudy 66 18.8 64 18 95 95 SSE 9 15 29.82 1010 10 16 0.00 0.00
11:15 pm 23:15 Cloudy 65 18.5 64 17.8 96 96 SSE 6 9 29.81 1009 10 16 0.00 0.00
11:35 pm 23:35 Cloudy 65 18.4 64 17.7 96 96 SE 8 13 29.82 1010 10 16 0.00 0.00
11:55 pm 23:55 Cloudy 65 18.3 64 17.7 96 96 SSE 9 15 29.82 1010 10 16 0.00 0.00

Powered by AerisWeather